Home   Weather   Birmingham   Past weeks
Flag for United Kingdom

Past Weather in Birmingham, England, United Kingdom — Yesterday and Last 2 Weeks

Now
43 °F

Clear.


Feels Like: 36 °F
Forecast: 54 / 44 °F
Wind: 12 mph from Southeast

Location: Birmingham / Airport

Current Time: Feb 17, 2019 at 7:58:15 am

Latest Report: Feb 17, 2019 at 7:20 am


Visibility: 4 mi

Pressure: 29.89 "Hg

Humidity: 93%

Dew Point: 41 °F

Location of BirminghamLocation

Past Weather in Birmingham — Graph

°F

Birmingham Temperature Yesterday

Maximum temperature yesterday: 54 °F (at 11:20 am)
Minimum temperature yesterday: 41 °F (at 12:20 am)
Average temperature yesterday: 51 °F

High & Low Weather Summary for the Past Weeks

 TemperatureHumidityPressure
High57 °F (Feb 15, 2:20 pm)100% (Feb 3, 3:20 am)30.48 "Hg (Feb 3, 3:20 am)
Low21 °F (Feb 3, 5:50 am)51% (Feb 15, 2:50 pm)29.18 "Hg (Feb 8, 4:20 pm)
Average43 °F85%29.98 "Hg
* Reported Feb 2 6:20 am — Feb 17 6:50 am, Birmingham. Weather by CustomWeather, © 2019

Note: Actual official high and low records may vary slightly from our data, if they occured in-between our weather recording intervals... More about our weather records

Advertising

Birmingham Weather History for the Previous 24 Hours

Scroll right to see more
 ConditionsComfort  
Time TempWeatherWind HumidityBarometerVisibility
6:50 am
Sun, Feb 17
43 °FClear.10 mph93%29.89 "Hg4 mi
5:50 am45 °FPassing clouds.9 mph93%29.92 "Hg5 mi
5:20 am45 °FPassing clouds.8 mph93%29.92 "Hg5 mi
4:50 am45 °FPassing clouds.12 mph100%29.95 "Hg5 mi
4:20 am46 °FPassing clouds.13 mph93%29.95 "Hg5 mi
3:50 am48 °FLow clouds.12 mph94%29.95 "Hg5 mi
3:20 am48 °FPassing clouds.12 mph94%29.98 "HgN/A
2:50 am48 °FLow clouds.12 mph94%29.98 "HgN/A
2:20 am46 °FPassing clouds.9 mph93%30.01 "HgN/A
1:50 am46 °FPassing clouds.10 mph93%30.01 "HgN/A
1:20 am48 °FPassing clouds.10 mph87%30.01 "HgN/A
12:50 am48 °FOvercast.10 mph94%30.04 "HgN/A
12:20 am48 °FMostly cloudy.9 mph94%30.04 "HgN/A
11:50 pm
Sat, Feb 16
48 °FPassing clouds.9 mph94%30.07 "HgN/A
11:20 pm50 °FPassing clouds.9 mph88%30.07 "HgN/A
10:50 pm50 °FPassing clouds.12 mph94%30.07 "HgN/A
10:20 pm50 °FPassing clouds.12 mph94%30.07 "HgN/A
9:50 pm52 °FMostly cloudy.12 mph88%30.07 "HgN/A
9:20 pm52 °FPassing clouds.10 mph88%30.07 "HgN/A
8:50 pm52 °FPassing clouds.12 mph88%30.07 "HgN/A
8:20 pm54 °FOvercast.12 mph82%30.07 "HgN/A
7:50 pm54 °FOvercast.10 mph82%30.09 "HgN/A
7:20 pm54 °FPassing clouds.10 mph82%30.09 "HgN/A
6:50 pm54 °FPassing clouds.9 mph82%30.09 "HgN/A
6:20 pm54 °FPassing clouds.9 mph82%30.09 "HgN/A
5:50 pm54 °FPassing clouds.7 mph82%30.07 "HgN/A
5:20 pm54 °FBroken clouds.6 mph82%30.07 "HgN/A
4:50 pm54 °FPartly sunny.7 mph82%30.09 "HgN/A
4:20 pm54 °FPartly sunny.9 mph82%30.09 "HgN/A
3:50 pm54 °FBroken clouds.7 mph82%30.09 "HgN/A
3:20 pm54 °FPartly sunny.7 mph82%30.09 "HgN/A
2:50 pm54 °FPartly sunny.8 mph82%30.12 "HgN/A
2:20 pm54 °FBroken clouds.8 mph77%30.12 "HgN/A
1:50 pm54 °FPartly sunny.10 mph77%30.12 "HgN/A
1:20 pm54 °FScattered clouds.9 mph77%30.12 "HgN/A
12:50 pm54 °FScattered clouds.10 mph72%30.12 "HgN/A
12:20 pm54 °FScattered clouds.12 mph72%30.15 "HgN/A
11:50 am52 °FScattered clouds.10 mph77%30.15 "HgN/A
11:20 am54 °FScattered clouds.9 mph77%30.15 "HgN/A
10:50 am52 °FScattered clouds.9 mph77%30.15 "HgN/A
10:20 am52 °FPassing clouds.8 mph77%30.15 "HgN/A
9:50 am50 °FPassing clouds.7 mph88%30.15 "HgN/A
9:20 am50 °FPassing clouds.8 mph88%30.15 "HgN/A
8:50 am48 °FScattered clouds.6 mph94%30.15 "HgN/A
8:20 am48 °FScattered clouds.7 mph94%30.15 "Hg4 mi
7:50 am48 °FPassing clouds.6 mph94%30.12 "Hg4 mi
Weather by CustomWeather, © 2019

See weather overview